TimeMDT,TemperatureF,Dew PointF,Humidity,Sea Level PressureIn,VisibilityMPH,Wind Direction,Wind SpeedMPH,Gust SpeedMPH,PrecipitationIn,Events,Conditions,WindDirDegrees,DateUTC
12:51 AM,35.1,32.0,89,29.96,9.0,East,9.2,-,N/A,,Overcast,100,2012-11-02 06:51:00
1:51 AM,34.0,30.9,89,29.98,10.0,ESE,8.1,-,N/A,,Overcast,120,2012-11-02 07:51:00
2:51 AM,34.0,30.9,89,29.99,6.0,SE,6.9,-,N/A,,Overcast,130,2012-11-02 08:51:00
3:13 AM,33.8,30.2,87,29.92,4.0,ESE,5.8,-,N/A,,Overcast,120,2012-11-02 09:13:00
3:24 AM,33.8,32.0,93,29.93,2.5,ESE,4.6,-,N/A,,Overcast,120,2012-11-02 09:24:00
3:51 AM,34.0,32.0,92,29.96,2.0,ESE,10.4,-,0.02,Rain,Rain,110,2012-11-02 09:51:00
3:59 AM,33.8,30.2,87,29.88,2.5,East,12.7,-,0.01,Rain,Rain,100,2012-11-02 09:59:00
4:07 AM,33.8,30.2,87,29.89,4.0,East,11.5,-,0.01,Rain,Light Rain,100,2012-11-02 10:07:00
4:15 AM,33.8,30.2,87,29.90,7.0,SSE,11.5,-,0.01,,Overcast,150,2012-11-02 10:15:00
4:51 AM,34.0,32.0,92,29.96,3.0,SE,5.8,-,0.01,,Overcast,130,2012-11-02 10:51:00
4:57 AM,33.8,32.0,93,29.91,2.5,SE,5.8,-,N/A,,Overcast,130,2012-11-02 10:57:00
5:17 AM,35.6,33.8,93,29.93,5.0,South,5.8,-,N/A,,Overcast,170,2012-11-02 11:17:00
5:35 AM,35.6,33.8,93,29.93,6.0,SE,3.5,-,0.01,Rain,Light Rain,140,2012-11-02 11:35:00
5:51 AM,36.0,34.0,93,29.99,6.0,SE,3.5,-,0.01,Rain,Light Rain,140,2012-11-02 11:51:00
6:18 AM,37.4,33.8,87,29.94,8.0,Calm,Calm,-,0.01,Rain,Light Rain,0,2012-11-02 12:18:00
6:51 AM,37.9,36.0,93,29.99,5.0,Calm,Calm,-,0.03,Rain,Rain,0,2012-11-02 12:51:00
7:08 AM,39.2,35.6,87,29.94,9.0,WSW,5.8,-,0.01,Rain,Light Rain,240,2012-11-02 13:08:00
7:51 AM,39.9,37.0,89,29.99,10.0,WSW,4.6,-,0.01,,Overcast,250,2012-11-02 13:51:00
8:51 AM,42.1,37.9,85,29.99,10.0,WSW,8.1,-,0.00,,Mostly Cloudy,240,2012-11-02 14:51:00
10:04 AM,44.6,41.0,87,29.98,10.0,West,15.0,20.7,N/A,,Mostly Cloudy,270,2012-11-02 16:04:00
10:51 AM,46.9,41.0,80,30.02,10.0,WNW,17.3,-,N/A,,Overcast,290,2012-11-02 16:51:00
11:14 AM,48.2,41.0,76,29.98,10.0,WNW,13.8,-,N/A,,Overcast,300,2012-11-02 17:14:00
11:41 AM,46.4,39.2,76,29.99,10.0,NW,13.8,-,N/A,,Overcast,310,2012-11-02 17:41:00
11:51 AM,46.9,39.9,77,30.03,10.0,WNW,11.5,-,N/A,,Overcast,300,2012-11-02 17:51:00
12:06 PM,46.4,39.2,76,30.00,10.0,NW,11.5,-,N/A,,Overcast,310,2012-11-02 18:06:00
12:51 PM,50.0,39.9,68,30.03,10.0,WNW,17.3,20.7,N/A,,Mostly Cloudy,300,2012-11-02 18:51:00
1:51 PM,46.9,37.9,71,30.04,10.0,NW,11.5,-,N/A,,Overcast,320,2012-11-02 19:51:00
2:06 PM,46.4,37.4,71,30.00,10.0,NW,12.7,-,N/A,,Overcast,320,2012-11-02 20:06:00
2:23 PM,46.4,37.4,71,30.00,10.0,NW,11.5,-,0.00,Rain,Light Rain,310,2012-11-02 20:23:00
3:51 PM,43.0,35.1,74,30.07,10.0,NW,18.4,24.2,N/A,,Overcast,310,2012-11-02 21:51:00
4:30 PM,42.8,35.6,76,30.03,10.0,WNW,12.7,25.3,N/A,,Overcast,300,2012-11-02 22:30:00
4:51 PM,41.0,34.0,76,30.08,10.0,WNW,17.3,26.5,N/A,,Overcast,290,2012-11-02 22:51:00
5:51 PM,37.9,32.0,79,30.12,10.0,NW,19.6,27.6,0.00,Snow,Light Snow,310,2012-11-02 23:51:00
5:57 PM,37.4,32.0,81,30.06,9.0,NW,17.3,26.5,0.00,Snow,Light Snow,310,2012-11-02 23:57:00
6:13 PM,37.4,32.0,81,30.07,9.0,WNW,17.3,26.5,0.00,Snow,Light Snow,300,2012-11-03 00:13:00
6:51 PM,37.0,30.9,79,30.14,9.0,WNW,15.0,23.0,0.00,Snow,Light Snow,300,2012-11-03 00:51:00
7:51 PM,37.0,30.9,79,30.15,9.0,WNW,16.1,-,0.00,Snow,Light Snow,300,2012-11-03 01:51:00
8:26 PM,35.6,30.2,81,30.11,10.0,WNW,16.1,-,0.00,,Overcast,300,2012-11-03 02:26:00
8:51 PM,36.0,30.9,82,30.17,10.0,NW,12.7,-,0.00,,Overcast,310,2012-11-03 02:51:00
9:51 PM,36.0,30.9,82,30.17,10.0,NW,12.7,-,N/A,,Overcast,320,2012-11-03 03:51:00
11:39 PM,35.6,30.2,81,30.14,10.0,WNW,8.1,-,N/A,,Overcast,300,2012-11-03 05:39:00
11:51 PM,35.1,30.0,82,30.18,10.0,NW,9.2,-,N/A,,Overcast,320,2012-11-03 05:51:00